Location: Braunsdorf
(50.7357°N, 11.9136°E)
Time: 09:52:42
(UTC+00:00)

STARLINK-1118 - Pass Details

Date: 17 February 2020
Orbit: 240 x 243 km, 53.0° (Epoch: 29 March)

Event Time Altitude Azimuth Distance (km) Brightness Sun altitude
Exits shadow 04:05:03 - 146° (SE) 1,591 6.3 -22.2°
Enters shadow 05:02:33 -70° 243° (WSW) 12,419 10.4 -13.1°
Maximum altitude 05:39:45 27° 149° (SSE) 519 4.1 -7.3°
